Location: Val-d'Or
(48.1170°N, 77.7670°W)
Time: 17:23:56
(UTC-04:00)

ISS - Visible Passes

Search period start: 22 June 2025 00:00
Search period end: 02 July 2025 00:00
Orbit: 415 x 417 km, 51.6° (Epoch: 22 June)

Date Brightness Start Highest point End Pass type
(mag) Time Alt. Az. Time Alt. Az. Time Alt. Az.
23 Jun -1.9 03:57:35 11° S 04:00:00 20° SE 04:02:32 10° E visible
24 Jun -1.5 03:10:46 12° SSE 03:11:38 13° SE 03:13:14 10° ESE visible
25 Jun -3.1 03:56:44 15° SW 03:59:18 43° SSE 04:02:30 10° ENE visible
26 Jun -2.6 03:09:47 24° S 03:10:47 28° SE 03:13:43 10° E visible
27 Jun -1.9 02:22:46 18° SE 02:22:46 18° SE 02:24:44 10° E visible
27 Jun -3.8 03:55:37 12° WSW 03:58:40 88° SSE 04:02:03 10° ENE visible
28 Jun -3.7 03:08:32 29° SW 03:10:02 61° SSE 03:13:22 10° ENE visible
29 Jun -3.2 02:21:23 40° SSE 02:21:25 40° SSE 02:24:36 10° ENE visible
29 Jun -3.2 03:54:47 10° W 03:58:06 57° NNW 04:01:26 10° ENE visible
30 Jun -1.9 01:34:10 20° ESE 01:34:10 20° ESE 01:35:43 10° E visible
30 Jun -3.6 03:07:01 18° WSW 03:09:22 73° NNW 03:12:43 10° ENE visible
01 Jul -3.9 02:19:43 46° WSW 02:20:38 83° SSE 02:23:59 10° ENE visible
01 Jul -2.6 03:54:18 10° W 03:57:33 44° N 04:00:48 10° ENE visible
